Location: Briis
(48.6240°N, 2.1211°E)
Time: 01:24:37
(UTC+00:00)

COSMOS 2455 - Pass Details

Date: 25 September 2020
Orbit: 898 x 911 km, 67.1° (Epoch: 23 October)

Event Time Altitude Azimuth Distance (km) Brightness Sun altitude
Rises 04:12:08 0° 326° (NW) 3,553 5.8 -15.6°
Reaches altitude 10° 04:14:50 10° 334° (NNW) 2,609 5.1 -15.2°
Maximum altitude 04:20:30 39° 43° (NE) 1,332 4.2 -14.3°
Drops below altitude 10° 04:26:07 10° 112° (ESE) 2,595 6.1 -13.4°
Sets 04:28:48 0° 120° (ESE) 3,532 6.7 -12.9°
